Hourly Weather Macapa

Today, 29 September, Tuesday

Time Temperature Precipitation Wind Pressure Humidity
00:00 +27°C° 0 mm 4 mps 758 mmHg 84%
01:00 +26°C° 0 mm 3 mps 758 mmHg 85%
02:00 +26°C° 0 mm 3 mps 757 mmHg 87%
03:00 +26°C° 0 mm 3 mps 756 mmHg 89%
04:00 +26°C° 0 mm 3 mps 756 mmHg 89%
05:00 +26°C° 0 mm 3 mps 756 mmHg 90%
06:00 +25°C° 0 mm 2 mps 756 mmHg 90%
07:00 +27°C° 0 mm 3 mps 757 mmHg 81%
08:00 +29°C° 0 mm 3 mps 758 mmHg 71%
09:00 +31°C° 0 mm 3 mps 758 mmHg 61%
10:00 +34°C° 0 mm 4 mps 758 mmHg 54%
11:00 +36°C° 0 mm 4 mps 758 mmHg 46%
12:00 +37°C° 0 mm 4 mps 758 mmHg 39%
13:00 +37°C° 0 mm 4 mps 757 mmHg 37%
14:00 +39°C° 0 mm 5 mps 756 mmHg 35%
15:00 +39°C° 0 mm 5 mps 755 mmHg 34%
16:00 +36°C° 0 mm 5 mps 755 mmHg 39%
17:00 +34°C° 0 mm 5 mps 756 mmHg 45%
18:00 +33°C° 0 mm 4 mps 756 mmHg 51%
19:00 +32°C° 0 mm 4 mps 756 mmHg 59%
20:00 +29°C° 0 mm 4 mps 757 mmHg 68%
21:00 +28°C° 0 mm 4 mps 758 mmHg 77%
22:00 +28°C° 0 mm 4 mps 758 mmHg 80%
23:00 +27°C° 0 mm 4 mps 758 mmHg 82%

Tomorrow, 30 September, Wednesday

Time Temperature Precipitation Wind Pressure Humidity
00:00 +27°C° 0 mm 3 mps 758 mmHg 85%
01:00 +27°C° 0 mm 3 mps 757 mmHg 87%
02:00 +26°C° 0 mm 3 mps 757 mmHg 89%
03:00 +26°C° 0 mm 3 mps 756 mmHg 90%
04:00 +26°C° 0 mm 3 mps 756 mmHg 91%
05:00 +26°C° 0 mm 3 mps 756 mmHg 91%
06:00 +26°C° 0 mm 3 mps 756 mmHg 91%
07:00 +28°C° 0 mm 3 mps 757 mmHg 82%
08:00 +30°C° 0 mm 3 mps 758 mmHg 73%
09:00 +33°C° 0 mm 3 mps 758 mmHg 63%
10:00 +34°C° 0 mm 4 mps 758 mmHg 58%
11:00 +36°C° 0 mm 4 mps 758 mmHg 52%
12:00 +37°C° 0 mm 5 mps 757 mmHg 46%
13:00 +37°C° 0.1 mm 5 mps 757 mmHg 46%
14:00 +37°C° 0.1 mm 5 mps 756 mmHg 46%
15:00 +37°C° 0.1 mm 5 mps 755 mmHg 45%
16:00 +36°C° 0 mm 5 mps 755 mmHg 50%
17:00 +34°C° 0 mm 5 mps 755 mmHg 56%
18:00 +33°C° 0 mm 5 mps 755 mmHg 61%
19:00 +32°C° 0 mm 5 mps 756 mmHg 66%
20:00 +30°C° 0 mm 4 mps 756 mmHg 71%
21:00 +29°C° 0 mm 4 mps 757 mmHg 76%
22:00 +28°C° 0 mm 4 mps 757 mmHg 77%
23:00 +28°C° 0 mm 4 mps 757 mmHg 79%

Day after tomorrow, 1 October, Thursday

Time Temperature Precipitation Wind Pressure Humidity
00:00 +28°C° 0 mm 4 mps 757 mmHg 81%
01:00 +27°C° 0 mm 3 mps 757 mmHg 81%
02:00 +27°C° 0 mm 3 mps 756 mmHg 82%
03:00 +27°C° 0 mm 3 mps 756 mmHg 83%
04:00 +26°C° 0 mm 3 mps 756 mmHg 85%
05:00 +26°C° 0 mm 3 mps 756 mmHg 87%
06:00 +26°C° 0 mm 3 mps 756 mmHg 88%
07:00 +28°C° 0 mm 3 mps 756 mmHg 80%
08:00 +30°C° 0 mm 3 mps 757 mmHg 71%
09:00 +33°C° 0 mm 4 mps 758 mmHg 62%
10:00 +34°C° 0 mm 4 mps 757 mmHg 56%
11:00 +36°C° 0 mm 4 mps 757 mmHg 49%
12:00 +37°C° 0 mm 5 mps 757 mmHg 43%
13:00 +37°C° 0 mm 5 mps 756 mmHg 43%
14:00 +37°C° 0 mm 5 mps 755 mmHg 43%
15:00 +37°C° 0 mm 5 mps 754 mmHg 42%
16:00 +36°C° 0 mm 5 mps 755 mmHg 47%
17:00 +34°C° 0 mm 5 mps 755 mmHg 52%
18:00 +33°C° 0 mm 5 mps 755 mmHg 57%
19:00 +32°C° 0 mm 5 mps 756 mmHg 62%
20:00 +30°C° 0 mm 5 mps 756 mmHg 68%
21:00 +29°C° 0 mm 5 mps 757 mmHg 73%
22:00 +28°C° 0 mm 4 mps 757 mmHg 76%
23:00 +28°C° 0 mm 4 mps 757 mmHg 79%

2 October, Friday

Time Temperature Precipitation Wind Pressure Humidity
00:00 +27°C° 0 mm 4 mps 757 mmHg 82%
01:00 +27°C° 0 mm 4 mps 756 mmHg 83%
02:00 +27°C° 0 mm 3 mps 756 mmHg 84%
03:00 +26°C° 0 mm 3 mps 756 mmHg 85%
04:00 +26°C° 0 mm 3 mps 756 mmHg 87%
05:00 +26°C° 0 mm 3 mps 756 mmHg 89%
06:00 +25°C° 0 mm 3 mps 756 mmHg 91%
07:00 +27°C° 0 mm 3 mps 756 mmHg 81%
08:00 +29°C° 0 mm 3 mps 757 mmHg 72%
09:00 +31°C° 0 mm 3 mps 758 mmHg 62%
10:00 +34°C° 0 mm 3 mps 757 mmHg 54%
11:00 +36°C° 0 mm 4 mps 757 mmHg 46%
12:00 +38°C° 0 mm 4 mps 757 mmHg 37%
13:00 +38°C° 0 mm 4 mps 756 mmHg 39%
14:00 +39°C° 0 mm 5 mps 755 mmHg 40%
15:00 +39°C° 0 mm 5 mps 755 mmHg 41%
16:00 +36°C° 0 mm 5 mps 755 mmHg 47%
17:00 +34°C° 0 mm 5 mps 755 mmHg 53%
18:00 +33°C° 0 mm 5 mps 755 mmHg 59%
19:00 +32°C° 0 mm 5 mps 756 mmHg 64%
20:00 +30°C° 0 mm 4 mps 756 mmHg 70%
21:00 +28°C° 0 mm 4 mps 757 mmHg 75%
22:00 +28°C° 0 mm 4 mps 757 mmHg 77%
23:00 +28°C° 0 mm 3 mps 757 mmHg 80%

3 October, Saturday

Time Temperature Precipitation Wind Pressure Humidity
00:00 +27°C° 0 mm 3 mps 757 mmHg 82%
01:00 +27°C° 0 mm 3 mps 757 mmHg 84%
02:00 +27°C° 0 mm 3 mps 756 mmHg 86%
03:00 +26°C° 0 mm 3 mps 756 mmHg 88%
04:00 +26°C° 0 mm 2 mps 756 mmHg 90%
05:00 +26°C° 0 mm 2 mps 756 mmHg 92%
06:00 +25°C° 0 mm 2 mps 756 mmHg 94%
07:00 +27°C° 0 mm 2 mps 757 mmHg 85%
08:00 +29°C° 0 mm 3 mps 757 mmHg 77%
09:00 +31°C° 0 mm 3 mps 758 mmHg 68%
10:00 +34°C° 0 mm 3 mps 758 mmHg 62%
11:00 +35°C° 0 mm 4 mps 758 mmHg 55%
12:00 +37°C° 0 mm 4 mps 757 mmHg 48%
13:00 +37°C° 0 mm 4 mps 757 mmHg 47%
14:00 +37°C° 0 mm 4 mps 756 mmHg 47%
15:00 +37°C° 0 mm 5 mps 755 mmHg 46%
16:00 +36°C° 0 mm 5 mps 755 mmHg 51%
17:00 +35°C° 0 mm 5 mps 755 mmHg 55%
18:00 +33°C° 0 mm 5 mps 755 mmHg 60%
19:00 +32°C° 0 mm 5 mps 756 mmHg 65%
20:00 +30°C° 0 mm 5 mps 757 mmHg 70%
21:00 +29°C° 0 mm 5 mps 757 mmHg 75%
22:00 +28°C° 0 mm 4 mps 757 mmHg 78%
23:00 +28°C° 0 mm 4 mps 757 mmHg 80%

4 October, Sunday

Time Temperature Precipitation Wind Pressure Humidity
00:00 +27°C° 0 mm 4 mps 757 mmHg 83%
01:00 +27°C° 0 mm 4 mps 757 mmHg 84%
02:00 +27°C° 0 mm 4 mps 756 mmHg 86%
03:00 +26°C° 0 mm 4 mps 756 mmHg 87%
04:00 +26°C° 0 mm 3 mps 756 mmHg 89%
05:00 +26°C° 0 mm 3 mps 756 mmHg 90%
06:00 +26°C° 0 mm 3 mps 756 mmHg 91%
07:00 +28°C° 0 mm 3 mps 757 mmHg 82%
08:00 +30°C° 0 mm 3 mps 757 mmHg 73%
09:00 +33°C° 0 mm 3 mps 758 mmHg 64%
10:00 +35°C° 0 mm 4 mps 758 mmHg 56%
11:00 +36°C° 0 mm 4 mps 757 mmHg 49%
12:00 +38°C° 0 mm 4 mps 757 mmHg 41%
13:00 +39°C° 0 mm 5 mps 756 mmHg 41%
14:00 +39°C° 0 mm 5 mps 756 mmHg 41%
15:00 +39°C° 0 mm 6 mps 755 mmHg 42%
16:00 +36°C° 0 mm 6 mps 755 mmHg 48%
17:00 +35°C° 0 mm 6 mps 755 mmHg 54%
18:00 +33°C° 0 mm 6 mps 755 mmHg 60%
19:00 +32°C° 0 mm 6 mps 756 mmHg 65%
20:00 +30°C° 0 mm 5 mps 757 mmHg 70%
21:00 +29°C° 0 mm 5 mps 758 mmHg 74%
22:00 +29°C° 0 mm 5 mps 758 mmHg 76%
23:00 +29°C° 0 mm 4 mps 758 mmHg 78%
Show more